User: anonymous   Login
Location: Unspecified
(0.0000°N, 0.0000°E)
Time: 14:28:56
(UTC+00:00)
Language:

TURKSAT 3U - Orbit

View from above orbital plane
View from above orbital plane
View from above satellite
View from above satellite

Ground track
Ground track

The orbit data is extracted from the following two-line orbital elements,

1 39152U 13018C   24106.21994786  .00005389  00000-0  61542-3 0  9998
2 39152  97.8281 192.8806 0014724 203.5262 156.5281 14.86400753592854
Epoch (UTC): 15 April 2024 05:16:43
Eccentricity: 0.0014724
inclination: 97.8281°
perigee height: 599 km
apogee height: 619 km
right ascension of ascending node: 192.8806°
argument of perigee: 203.5262°
revolutions per day: 14.86400753
mean anomaly at epoch: 156.5281°
orbit number at epoch: 59285

The dashed part of the orbit path shows where the satellite is in the earth's shadow,  

DLR